Theta_e
309 309 309 309 308 309 308 309 309 310 310 309 309 309 310 309 309 309 309 309 309 309 310 309 309 310 310 310 311 310 308 303 303 304 307 309 317 318 317 318 317 318 319 315 314 310 304 300 298 300 300 299 299 297 303 301 302 299 291 291 290 293 294 297 296 298 298 295 293 291 295 300 302 297 299 299 299 300 299 298 300 301 301 305 305 308 315 324
309 309 309 309 309 308 309 309 309 308 309 309 309 309 309 309 309 309 309 309 309 309 309 309 309 309 309 310 310 311 305 304 302 305 305 313 318 316 316 316 316 317 316 311 308 306 300 298 299 299 298 295 301 297 301 298 302 294 292 291 290 295 297 300 299 299 297 296 293 294 296 298 302 304 300 299 300 299 298 299 300 299 302 304 304 305 314 329
310 309 309 309 309 309 308 308 309 309 309 308 309 308 308 309 309 309 309 309 309 309 309 309 309 309 308 309 309 310 304 302 302 302 305 316 315 315 315 315 315 316 312 309 308 307 303 301 300 298 297 295 297 294 297 296 298 296 293 289 291 296 296 297 299 299 297 298 294 293 297 296 301 300 302 300 303 301 300 301 300 299 301 303 307 313 322 330
309 309 308 308 308 308 308 309 309 308 308 308 308 308 307 308 308 308 308 309 308 308 309 308 308 308 308 309 309 308 302 300 297 300 305 316 315 315 315 315 315 313 312 310 309 306 305 304 301 299 297 294 295 297 293 298 294 297 293 291 294 295 293 296 298 300 299 296 295 295 295 295 299 298 298 299 299 302 302 304 305 305 304 306 308 311 321 326
308 307 307 307 307 308 308 308 308 308 309 308 308 308 308 308 308 308 308 308 308 309 308 308 308 308 308 310 307 305 299 289 294 301 306 315 315 314 315 314 313 311 311 308 307 304 303 301 299 298 296 292 294 294 294 297 299 296 293 295 295 294 294 295 296 297 295 296 294 293 292 296 300 297 297 297 297 299 305 304 305 306 308 307 306 308 319 324
309 308 307 307 307 307 307 307 307 308 309 310 309 308 308 308 308 307 308 308 308 308 308 308 308 308 308 309 306 302 293 281 300 300 310 312 312 314 314 313 312 309 311 308 305 302 302 299 298 294 292 292 292 291 292 294 297 289 294 293 294 294 294 293 294 294 294 296 294 294 294 295 297 298 298 298 298 302 304 305 304 303 303 302 304 309 314 320
308 308 307 307 307 308 307 307 307 307 308 309 309 309 308 308 307 307 307 307 307 307 307 308 307 308 308 308 304 299 293 296 300 305 309 311 309 311 313 309 309 306 308 305 303 301 299 298 297 295 293 292 291 292 292 293 296 293 291 292 293 293 293 295 294 294 294 293 295 297 293 292 294 292 300 296 299 301 302 301 307 307 304 305 303 306 310 315
307 307 308 308 307 307 307 307 307 308 307 308 308 309 308 308 307 307 307 306 307 307 307 307 307 307 307 304 297 291 291 294 301 306 308 309 303 303 309 306 305 305 303 301 302 299 299 296 295 295 292 290 292 291 292 291 293 291 291 292 293 293 294 296 295 295 295 295 295 296 295 295 296 294 295 295 300 302 303 303 303 305 306 305 305 305 308 313
308 308 308 308 307 307 307 307 307 307 307 308 308 308 308 307 306 306 306 306 307 307 306 306 306 306 307 303 295 291 290 300 303 305 306 302 300 301 306 305 305 303 300 300 302 303 299 296 295 296 290 291 292 291 291 290 288 291 291 291 291 292 294 295 295 295 294 295 295 293 294 297 297 299 294 296 297 301 304 306 305 304 304 308 307 306 307 309
307 308 307 307 307 306 307 307 307 307 307 308 308 308 308 306 306 306 305 306 306 306 305 305 305 306 304 298 295 287 296 304 303 304 303 299 298 301 304 304 303 302 301 299 300 300 298 297 295 298 296 294 295 291 292 291 289 290 292 292 291 292 293 296 293 295 296 294 295 292 293 295 299 295 292 299 299 300 303 303 306 305 303 304 308 309 308 308
308 308 308 307 307 306 306 306 307 307 307 307 308 308 307 306 306 305 305 306 306 305 305 305 304 305 300 299 290 287 300 302 304 304 298 298 299 302 301 303 302 301 301 299 299 299 299 299 299 299 296 292 294 292 292 292 294 291 292 292 292 293 294 294 294 293 295 293 294 294 293 295 296 296 292 297 302 299 299 301 302 302 302 302 304 306 308 308
308 308 308 308 307 307 306 306 306 307 307 307 307 307 306 305 305 305 305 305 305 309 308 307 305 305 302 297 291 292 301 301 304 303 298 297 300 300 301 301 301 301 300 299 299 300 300 300 299 296 290 296 289 294 291 295 293 292 291 287 290 291 289 292 291 294 294 292 295 296 291 290 292 292 297 299 301 301 300 298 298 301 303 302 303 305 305 305
308 308 308 307 307 307 306 306 306 306 307 308 307 305 305 305 304 305 305 304 308 307 306 307 307 305 298 290 292 301 302 304 304 298 298 298 301 302 301 301 301 300 301 300 298 300 299 299 300 296 297 295 293 288 294 295 293 292 291 289 288 288 287 291 293 295 293 293 295 294 282 287 291 294 298 299 301 299 298 296 296 296 298 301 303 303 304 305
308 308 308 307 307 307 307 306 307 307 308 307 305 304 305 305 304 304 304 303 308 307 307 308 306 302 296 291 297 303 303 307 302 297 296 298 300 303 302 302 302 302 302 300 300 300 301 299 300 298 299 294 291 298 293 292 292 287 290 290 286 286 285 288 289 291 289 297 295 294 283 286 292 296 301 301 301 299 296 296 296 297 297 298 300 302 303 306
308 308 308 307 307 307 306 307 306 307 308 306 304 303 304 303 303 303 301 303 308 306 306 306 306 298 293 294 302 306 307 306 297 295 297 295 297 299 299 302 301 300 301 301 301 300 300 300 298 295 292 296 296 291 288 288 288 289 286 283 286 285 287 286 291 291 286 291 297 292 284 285 290 292 296 298 300 300 296 296 296 296 297 297 298 299 301 303
308 307 307 306 307 306 306 306 307 307 306 304 302 303 303 302 301 301 301 299 304 308 306 301 301 296 294 290 295 304 298 294 294 295 297 295 297 297 299 300 300 300 301 300 302 300 300 299 294 293 293 294 291 289 288 287 286 286 285 284 283 285 286 287 291 292 292 291 291 291 284 290 288 293 296 296 296 296 297 296 297 298 298 298 298 299 300 300
308 307 306 307 306 306 306 306 307 307 305 303 302 304 302 301 299 300 301 298 299 304 304 296 299 298 290 297 301 293 292 294 296 296 296 296 295 298 299 300 298 299 300 301 301 301 299 295 295 293 293 290 290 289 284 283 283 284 286 283 285 282 284 283 289 289 291 290 287 290 286 287 290 292 295 297 295 296 294 294 295 297 297 297 298 298 298 299
307 307 306 306 306 306 306 306 307 306 303 301 302 301 298 298 297 300 297 296 300 301 299 299 300 295 291 293 287 289 292 291 294 294 294 296 296 299 298 298 298 298 298 296 297 293 295 291 294 287 290 288 288 286 282 278 283 284 284 283 283 283 284 284 285 288 288 289 287 288 288 287 289 292 293 295 297 294 293 294 295 295 296 297 298 298 298 299
307 306 306 306 306 306 306 306 306 305 302 301 302 300 298 294 294 296 293 293 293 289 287 289 286 282 283 286 290 291 292 293 294 293 296 296 300 298 300 299 298 296 292 292 291 292 293 290 291 286 283 285 285 287 284 285 285 284 284 284 284 282 283 282 286 289 287 286 286 286 285 287 289 290 291 293 294 294 294 295 295 295 296 296 297 298 298 299
307 306 306 306 305 306 306 306 306 303 301 298 296 295 294 289 289 287 292 290 286 285 286 286 285 286 285 289 290 293 295 294 291 294 296 297 298 296 296 297 295 296 292 288 290 291 293 285 283 283 285 287 287 288 288 288 286 285 284 283 283 283 284 287 286 287 289 285 285 286 286 287 288 289 290 291 292 292 292 292 293 294 295 296 296 297 297 298
306 306 306 306 305 305 306 306 305 302 299 296 295 291 283 283 281 281 283 285 287 287 285 286 286 285 287 288 289 290 289 291 291 293 296 301 297 294 291 294 291 287 290 289 289 292 292 283 284 286 287 287 287 288 288 287 286 285 284 283 283 284 281 286 285 288 290 285 284 287 286 286 288 290 291 292 291 289 290 291 292 292 293 294 295 295 296 297
307 307 306 305 306 305 306 306 305 301 298 296 293 288 287 287 289 289 285 281 286 287 286 285 285 285 289 288 290 291 290 288 289 292 297 298 294 290 290 290 288 284 289 289 287 285 283 282 286 288 288 288 287 287 287 286 285 285 283 283 282 282 285 287 286 288 288 286 283 286 284 285 287 289 291 291 291 291 292 291 291 292 292 293 294 295 295 296
307 307 307 306 305 306 305 306 303 299 295 293 290 290 288 292 293 292 290 282 280 286 285 284 284 285 287 290 290 291 288 287 285 291 293 297 293 291 290 287 287 286 286 286 280 279 277 282 285 288 289 287 286 286 285 285 285 284 283 281 279 283 281 278 284 285 287 285 283 285 283 284 287 289 289 291 291 291 293 293 293 293 293 293 293 294 295 295
306 306 306 306 306 305 306 305 300 299 293 291 291 290 293 294 293 291 286 281 281 283 284 287 286 287 288 289 292 290 289 289 288 289 296 294 290 292 289 286 284 284 283 285 283 281 280 285 287 287 287 286 284 285 284 283 282 284 284 282 282 282 282 282 282 285 286 287 286 284 281 282 284 284 286 290 292 292 292 293 293 294 295 295 296 295 295 294
306 306 306 305 305 305 305 304 297 295 292 290 290 293 293 293 293 292 285 282 282 283 288 287 286 288 290 293 293 288 289 290 291 293 292 294 291 288 288 289 287 283 284 285 284 282 282 287 288 286 285 285 284 283 284 284 281 282 285 284 284 284 282 283 284 283 280 279 285 283 276 277 283 284 284 288 289 290 292 291 292 293 293 294 293 294 295 295
305 306 305 305 305 305 305 297 295 295 294 291 291 293 293 292 292 292 285 276 273 282 285 282 292 287 296 287 286 286 289 285 291 291 294 294 298 289 289 285 287 280 283 284 281 282 282 286 285 283 284 284 284 283 285 284 280 278 279 284 284 284 283 283 282 282 276 274 281 285 275 272 282 282 284 286 286 288 291 290 291 292 293 294 294 294 295 295
305 305 305 305 305 305 297 292 297 296 291 291 292 293 293 292 292 290 281 274 272 283 282 287 287 287 292 287 285 288 278 281 290 292 291 292 291 296 284 282 285 286 287 285 279 277 284 284 284 284 283 282 282 280 283 282 280 277 285 284 284 283 282 281 281 280 277 283 284 284 280 274 274 279 284 285 285 285 286 289 290 291 292 292 293 294 294 294
305 305 305 305 304 303 297 298 296 294 292 294 294 293 292 291 292 290 278 264 266 284 280 285 288 293 289 286 285 283 283 282 280 289 288 290 291 289 285 283 281 282 284 282 273 283 283 282 283 282 282 282 280 283 285 284 281 281 283 285 283 283 283 282 281 280 280 278 274 279 281 275 274 279 283 285 283 283 284 286 289 291 293 292 290 290 291 292
304 304 304 304 304 302 300 297 295 293 296 293 293 292 291 292 289 280 274 264 274 278 295 285 294 289 284 285 282 282 282 284 280 284 288 290 290 288 283 285 283 282 281 282 276 280 283 285 285 285 283 280 284 285 285 284 281 285 286 286 286 285 284 282 280 279 278 275 270 276 279 273 274 280 281 283 282 281 283 286 288 290 291 289 289 289 290 290
304 304 304 304 302 300 297 296 295 299 296 294 292 291 291 288 283 275 267 260 275 274 284 285 285 281 283 281 280 281 280 281 281 283 286 285 286 291 286 289 284 280 279 282 281 282 281 286 286 283 282 284 285 285 286 285 285 288 286 283 282 281 281 281 280 279 276 270 272 277 279 276 270 277 280 280 281 284 285 286 289 290 289 289 289 288 289 289
304 304 304 304 298 299 297 293 297 299 297 293 292 290 287 283 274 270 259 272 274 279 282 282 280 282 279 279 280 279 277 278 279 281 279 284 282 284 285 280 284 279 278 278 277 279 279 281 280 282 286 285 286 283 287 287 287 285 281 279 278 276 279 277 276 278 270 267 273 277 277 277 269 274 281 284 286 286 286 285 286 288 287 287 287 287 288 288
303 303 303 302 302 300 293 292 298 297 298 294 291 287 281 270 271 268 268 284 272 276 276 277 275 277 276 276 274 277 277 277 276 278 278 280 278 277 279 275 279 273 273 275 275 277 275 276 280 281 285 284 283 280 282 284 285 282 280 278 272 269 273 266 273 268 268 267 275 278 278 275 273 277 282 284 285 286 287 287 288 287 287 286 286 286 287 287
303 303 303 301 302 298 299 300 298 297 297 296 290 284 275 270 261 271 269 271 273 276 276 277 275 275 274 275 275 273 273 275 279 276 278 276 275 278 280 279 276 276 270 275 272 273 275 275 275 278 283 285 284 276 277 276 279 279 277 275 271 267 265 262 268 271 271 274 277 276 280 273 278 281 285 284 285 287 288 288 288 287 286 285 286 286 286 287
303 302 300 300 301 301 301 300 298 298 297 295 287 280 274 265 267 277 269 273 272 274 275 275 273 273 272 275 275 274 275 276 277 277 278 276 274 274 277 278 275 276 275 274 270 273 268 271 274 276 275 284 282 280 281 278 280 279 281 277 273 272 268 263 267 265 267 271 276 278 275 271 275 278 280 281 282 284 285 285 286 286 285 285 286 286 286 286
302 301 300 299 298 300 302 300 298 299 294 288 281 276 267 268 268 268 271 272 273 274 274 273 274 272 273 272 271 270 275 274 274 275 275 275 274 274 275 276 276 277 275 271 273 270 270 271 276 280 279 283 280 283 284 281 280 280 280 280 274 272 278 269 272 271 270 270 271 274 273 278 278 282 281 282 282 282 283 283 284 283 284 285 284 285 285 285
299 298 298 295 295 299 301 299 299 298 293 284 278 272 269 272 269 269 274 277 275 275 274 274 272 272 273 272 271 269 274 273 274 274 274 274 275 273 277 277 274 277 274 271 274 268 270 268 276 276 279 280 283 284 283 284 271 278 278 273 275 283 278 272 273 274 273 271 267 276 275 278 283 283 281 281 280 280 280 281 282 282 283 284 283 284 284 285
294 296 292 294 295 298 299 299 298 295 290 283 276 270 275 276 279 275 280 277 277 277 275 270 272 271 268 270 270 269 272 274 272 273 271 273 271 274 272 275 278 277 278 278 274 275 271 272 272 275 274 280 280 281 284 283 282 281 272 277 282 282 281 275 267 272 270 266 268 275 271 274 275 271 281 280 278 278 279 279 280 281 282 282 282 283 284 285
293 292 292 293 296 298 299 299 297 292 287 280 274 277 280 275 281 280 280 277 276 277 274 272 273 273 270 269 271 270 272 272 272 271 270 274 271 277 274 274 278 277 279 279 274 275 275 268 272 274 277 278 279 280 279 283 283 279 277 283 275 270 269 274 272 264 264 264 267 272 274 275 277 277 278 277 277 277 278 279 279 280 280 281 282 282 284 285
293 291 285 292 296 298 297 298 295 288 282 276 274 274 280 279 282 279 280 280 279 277 274 275 272 274 273 270 270 267 270 270 271 271 269 272 269 275 275 276 274 276 278 279 275 276 275 268 271 271 275 277 276 277 271 276 280 279 281 277 280 276 273 272 272 272 272 265 267 266 271 269 278 279 282 278 278 278 278 278 278 279 280 280 281 282 282 283
288 284 283 294 293 297 298 296 289 285 279 273 276 276 280 276 281 282 281 281 278 276 275 274 276 273 272 272 271 272 271 271 272 271 271 274 272 278 274 278 276 274 276 278 276 278 272 275 265 272 271 274 270 275 272 276 273 275 275 273 275 274 278 275 275 272 270 266 267 266 266 271 278 281 280 279 278 279 279 279 279 279 280 281 281 282 282 283
290 283 283 293 293 297 296 290 282 279 277 279 280 277 279 278 281 281 281 283 281 283 278 276 275 273 274 272 271 273 272 270 271 270 271 272 272 270 276 277 278 275 277 276 275 276 271 271 266 271 269 270 273 276 276 277 278 276 275 273 274 272 270 267 265 275 272 269 265 267 264 273 279 281 281 279 280 280 280 280 279 279 279 280 281 282 282 282
284 276 281 294 295 295 289 279 280 282 279 276 275 279 277 284 280 280 281 281 281 279 283 278 278 276 275 275 275 274 272 272 272 271 272 270 275 274 276 277 278 279 275 273 274 277 276 274 270 268 269 271 274 274 274 275 276 275 276 274 276 275 274 270 263 267 271 270 272 270 267 268 281 280 281 281 280 280 280 280 279 280 279 279 280 281 282 283
282 280 292 294 296 293 285 277 279 278 276 279 283 282 283 281 280 282 280 281 276 280 277 277 276 275 277 276 276 275 275 271 273 271 273 274 274 277 279 277 278 278 279 276 278 278 278 269 268 268 273 273 274 275 273 273 273 273 273 274 274 271 273 271 270 271 269 269 268 268 265 269 279 281 281 280 280 280 280 280 280 280 280 280 280 281 281 282
282 282 284 294 296 293 281 272 273 275 277 279 279 279 283 280 280 279 278 280 278 277 276 276 278 279 276 279 276 274 277 269 275 273 273 276 274 280 279 278 279 276 277 275 273 278 268 271 269 266 265 267 269 272 272 272 271 270 271 273 273 274 273 273 271 269 267 267 268 266 261 268 277 280 280 279 279 278 279 281 281 280 280 280 280 280 281 281
282 285 285 287 292 289 277 280 276 275 275 275 276 275 277 279 281 281 280 278 281 280 278 276 278 280 277 279 276 277 277 275 272 276 276 276 276 281 280 280 279 278 279 281 280 281 273 272 269 263 261 259 258 259 262 266 268 271 271 272 272 271 271 269 266 268 264 267 268 265 265 272 276 278 278 279 279 279 280 281 282 282 280 279 280 280 280 280
280 273 281 281 285 284 283 284 281 278 275 275 274 276 277 275 279 282 282 279 281 281 280 280 280 280 277 277 275 274 274 277 274 273 275 274 276 278 279 279 279 278 280 282 281 280 272 274 272 269 267 265 267 269 273 274 272 267 268 270 271 271 272 272 271 268 265 267 266 268 268 269 272 274 275 277 277 277 278 279 280 281 280 280 281 281 281 281
281 276 276 274 281 281 278 281 279 279 275 279 273 277 274 276 278 278 283 276 281 280 279 279 278 276 275 275 273 273 275 274 276 275 274 274 277 277 276 276 276 277 279 279 281 278 271 269 271 271 270 271 272 272 274 274 270 271 270 270 272 271 271 269 267 265 270 267 263 270 270 268 270 273 275 275 277 278 278 279 280 281 279 280 280 280 281 281
273 279 281 282 275 273 275 276 279 277 278 278 274 277 274 274 275 273 278 280 280 280 274 276 277 277 276 275 275 270 273 273 274 271 276 275 275 273 270 274 273 278 277 276 278 273 270 267 271 271 270 272 273 273 274 273 272 272 272 272 271 272 271 268 267 269 270 266 264 270 271 269 271 274 275 276 277 277 278 280 280 279 279 279 279 279 280 280
283 281 281 281 274 277 277 278 279 277 276 276 275 275 272 273 272 275 275 275 276 275 277 270 273 275 276 276 274 271 272 267 269 271 270 271 269 271 270 272 275 277 276 274 275 275 271 267 270 270 268 269 270 272 273 272 271 270 270 271 272 272 271 271 269 270 270 268 270 270 271 271 274 275 277 278 280 280 280 280 279 278 278 279 279 279 279 279
277 277 275 281 280 278 278 278 277 276 273 276 272 273 274 273 272 274 276 275 271 273 277 272 273 274 275 274 273 270 271 272 271 269 273 271 271 272 270 272 272 275 276 272 274 274 271 265 271 269 267 267 270 271 272 271 271 269 271 271 272 272 272 271 271 271 271 270 271 271 270 270 276 278 278 280 280 280 279 278 278 278 279 278 278 278 279 279
283 284 282 276 273 275 277 276 275 274 272 273 272 273 274 274 273 275 274 277 274 272 274 272 274 274 274 273 272 272 274 274 274 274 275 274 270 274 270 271 275 271 273 271 272 271 272 267 271 268 264 264 268 269 269 271 270 269 269 270 270 270 269 270 268 271 270 268 270 270 268 270 275 278 279 279 278 277 277 278 278 279 279 279 278 278 279 279
284 285 284 279 271 278 274 276 275 274 269 274 274 273 273 273 275 275 271 276 276 276 275 275 274 273 272 271 271 273 276 276 276 277 276 276 277 276 276 275 274 272 271 270 273 270 270 268 266 266 263 262 267 268 268 268 267 264 265 269 271 272 272 273 273 273 272 273 270 268 269 275 276 278 277 278 277 277 278 278 278 279 279 279 278 278 279 279
Wind_Speed
20 20 19 19 20 20 20 20 20 20 20 21 22 22 20 20 19 18 19 19 18 17 16 16 14 14 14 16 16 10 11 8 8 4 7 7 10 8 11 13 14 12 9 2 2 3 2 1 2 3 3 4 3 5 5 3 2 4 7 9 12 11 13 9 12 11 2 1 2 4 7 11 13 4 4 2 6 7 1 4 2 3 6 6 1 2 3 2
20 20 20 20 20 20 20 19 20 21 20 21 21 22 21 21 21 21 20 20 18 17 16 15 13 12 13 14 11 9 10 5 4 5 8 11 9 10 11 12 13 12 8 1 1 1 4 5 2 1 4 5 2 3 9 5 6 8 4 8 14 9 11 7 9 7 3 3 4 7 7 10 12 8 5 7 7 9 9 8 4 6 8 6 5 3 2 6
20 21 20 20 20 21 21 21 21 20 20 21 22 21 20 21 22 22 22 21 19 17 16 14 12 12 11 11 10 7 7 5 2 6 7 16 10 11 12 11 12 8 6 2 2 2 3 1 2 5 3 2 2 3 6 5 8 10 6 11 12 6 4 6 8 7 6 2 5 4 6 10 7 3 4 8 11 8 11 7 5 8 9 8 6 5 4 5
22 21 21 22 22 22 22 21 21 21 21 21 21 22 20 22 22 23 22 21 20 18 16 13 11 10 11 9 9 5 5 3 2 2 7 15 12 12 12 12 12 7 1 4 1 1 2 2 2 4 4 4 2 1 7 6 8 6 10 11 7 8 5 7 9 11 7 2 4 5 3 4 8 3 3 3 9 14 9 9 10 9 8 7 4 2 4 5
23 22 22 22 23 23 22 23 22 21 21 21 22 22 21 22 22 22 23 21 19 18 15 13 10 10 10 7 5 4 2 4 3 4 9 14 12 12 11 10 11 4 3 2 2 3 2 2 2 1 1 5 1 2 6 5 3 1 13 12 6 3 8 2 5 2 1 1 3 4 5 8 2 4 8 8 14 12 7 8 11 11 11 4 3 2 3 6
22 22 22 22 22 23 24 24 23 23 23 23 22 21 22 22 22 22 21 21 18 16 14 12 10 9 9 5 4 2 2 3 3 4 11 13 12 13 11 8 9 2 2 2 1 1 2 2 3 4 4 3 6 8 1 3 2 8 7 1 1 1 8 3 2 2 1 4 6 5 2 2 4 7 5 9 17 12 5 5 4 4 5 2 2 2 3 6
22 22 22 22 22 23 24 25 25 24 24 23 23 23 23 24 23 21 20 18 16 13 12 11 8 9 6 4 2 1 2 4 1 2 11 12 12 11 10 5 7 5 2 2 2 1 1 2 4 3 3 2 4 7 0 1 2 6 5 4 1 4 6 4 4 3 2 3 4 1 2 3 3 11 2 10 11 11 4 3 1 2 3 2 2 4 5 6
23 23 22 23 23 25 24 25 25 24 25 25 24 24 24 24 23 22 20 16 13 12 11 9 8 6 6 5 2 0 1 3 2 1 11 11 10 9 8 0 7 2 4 4 2 2 0 4 6 2 3 5 2 6 1 3 2 7 9 2 3 4 5 6 5 4 3 5 4 5 7 6 7 7 2 12 10 10 10 2 1 3 1 1 2 3 5 5
21 22 22 22 24 24 24 25 26 26 27 26 24 26 25 24 24 22 18 13 11 10 8 7 7 4 3 1 2 1 2 2 2 4 9 9 9 7 5 1 5 3 2 1 3 0 3 2 3 5 4 5 2 4 0 3 6 3 4 4 3 4 6 6 8 9 6 4 2 9 14 7 6 2 11 13 12 11 10 8 4 4 7 6 5 6 5 5
22 22 22 23 25 26 26 26 27 27 28 26 27 27 27 25 24 22 16 12 10 8 6 6 7 6 2 2 2 2 3 3 2 4 7 7 8 4 3 2 3 1 1 2 1 1 1 2 1 3 1 1 3 4 4 5 1 1 1 2 3 4 6 5 5 7 6 6 6 11 14 13 3 4 8 3 11 8 9 11 7 8 10 11 8 5 5 6
22 23 23 23 24 27 27 28 28 28 27 27 29 29 28 26 24 19 14 12 10 8 8 8 4 4 1 2 2 2 2 1 1 4 6 7 6 5 4 3 2 1 1 1 1 1 1 2 1 2 1 2 5 3 4 1 3 1 3 4 5 3 4 7 6 8 4 8 2 6 14 13 13 8 16 5 6 3 4 6 7 7 8 8 10 10 7 7
23 23 23 24 25 25 27 29 29 29 28 28 30 31 29 27 23 16 12 11 10 9 6 5 4 3 0 0 1 3 4 2 2 2 5 8 5 3 3 2 1 1 1 1 1 1 1 1 3 2 1 1 2 2 1 2 1 1 0 5 6 3 4 5 8 7 5 9 2 5 15 21 17 19 10 10 9 4 5 6 6 6 6 7 7 7 7 8
22 23 24 24 25 25 26 29 30 29 29 28 29 31 30 27 19 14 11 9 9 8 1 3 7 2 2 1 1 1 2 2 1 2 7 6 3 1 1 2 1 1 2 1 2 2 1 0 2 3 1 2 2 2 3 4 1 2 4 4 7 7 10 8 5 7 9 8 6 3 13 17 20 19 8 10 10 10 11 12 12 12 11 10 10 9 9 8
22 22 24 25 24 25 27 28 28 28 28 28 31 31 30 23 15 12 9 8 6 6 6 8 4 3 2 0 2 1 4 2 2 4 9 7 3 1 1 4 3 2 2 0 2 0 2 0 1 1 1 2 1 2 2 1 1 4 0 2 4 4 4 5 5 6 9 4 10 9 16 17 10 3 3 3 11 14 15 16 14 14 14 13 12 11 11 11
23 23 23 24 23 24 26 28 29 29 26 28 30 33 27 19 10 8 7 7 5 5 8 7 3 2 1 2 0 2 3 2 0 6 5 8 6 1 5 4 4 4 3 3 1 0 0 2 2 2 1 1 2 3 5 2 1 2 5 6 6 8 4 4 6 8 8 4 8 13 15 19 9 5 9 5 3 10 15 15 14 12 13 11 11 10 10 9
22 22 22 23 23 24 26 27 28 28 25 29 31 31 22 12 7 7 4 10 5 4 1 2 1 1 1 1 1 1 1 2 4 8 1 5 2 3 5 4 1 3 0 2 0 1 1 1 1 2 2 2 2 3 4 4 4 4 7 9 2 3 5 4 7 7 1 1 3 13 10 1 3 6 6 6 2 3 8 11 11 9 6 5 5 4 5 7
20 21 22 21 22 24 24 26 27 26 26 27 33 25 17 7 6 4 2 10 3 1 2 1 2 1 1 2 4 0 3 2 3 5 7 2 3 3 5 1 1 3 5 4 1 1 2 1 1 2 1 1 1 2 4 8 9 5 5 7 6 7 6 8 5 3 0 3 7 12 11 9 3 4 3 5 4 3 5 8 10 10 8 8 7 7 8 8
19 19 20 21 22 23 24 26 27 24 25 27 27 23 11 5 6 0 3 3 2 1 4 1 3 3 3 1 2 2 2 6 6 6 7 2 2 2 3 1 1 2 3 4 1 2 1 2 2 2 2 3 4 5 7 8 5 5 5 7 7 7 11 9 5 3 2 3 6 9 17 19 15 12 14 14 3 3 10 10 10 11 12 12 10 9 9 8
18 19 18 19 20 21 23 24 25 23 24 25 26 13 7 6 3 2 4 7 1 3 3 1 2 4 2 1 3 5 3 2 6 3 0 1 1 1 1 1 1 3 3 3 2 3 2 2 1 3 6 5 7 8 9 7 5 6 7 8 9 8 5 7 8 3 3 8 10 11 14 15 13 11 10 13 15 12 13 12 11 11 10 12 12 11 10 10
18 18 18 18 19 20 21 22 21 19 23 16 15 6 3 9 4 2 3 6 2 3 3 4 2 5 9 4 3 7 5 1 2 2 4 0 2 4 2 1 1 0 3 3 5 2 2 4 5 6 6 6 7 9 9 7 3 3 2 7 10 10 11 4 2 2 1 6 14 16 17 18 15 13 11 11 13 16 14 14 13 12 11 11 12 13 13 14
18 17 17 18 18 19 20 21 17 16 16 11 12 11 8 7 9 9 14 9 6 2 5 8 6 7 5 4 5 7 2 2 1 2 2 1 2 2 1 1 2 3 2 2 0 2 2 3 8 8 4 5 7 7 7 7 4 6 8 9 10 9 10 4 4 4 6 7 12 13 15 18 17 15 13 12 12 18 17 15 15 16 16 14 15 15 15 15
18 17 18 17 17 18 19 19 13 14 8 6 12 8 4 2 1 2 2 10 2 3 1 4 1 5 4 6 2 1 1 1 3 1 2 2 2 4 2 2 3 3 4 2 3 3 3 8 5 5 6 6 5 5 6 6 8 8 8 8 9 8 8 8 5 4 5 8 13 13 15 15 15 14 14 14 15 16 17 15 16 16 17 16 15 15 15 14
17 17 17 17 17 17 18 17 9 9 6 8 7 6 3 1 1 1 4 7 13 4 5 3 3 6 6 1 0 3 1 3 2 2 3 3 3 1 2 3 3 2 2 3 4 2 4 4 2 1 4 7 7 5 5 5 7 7 8 8 11 5 2 4 5 2 3 6 9 12 15 16 16 15 20 19 19 19 19 19 18 17 18 18 17 14 12 14
16 17 17 17 16 17 16 14 2 4 6 3 6 5 0 0 2 3 3 5 9 2 3 3 5 2 4 1 5 5 2 0 1 2 4 2 1 1 3 2 3 2 4 4 6 6 7 2 2 4 5 7 9 7 8 8 8 10 11 11 9 7 6 8 8 4 4 12 11 14 14 18 14 13 13 16 19 19 17 18 19 16 15 14 13 14 14 17
17 17 17 16 15 15 15 8 3 4 1 2 1 0 0 1 2 6 3 6 4 5 4 2 3 5 2 3 3 3 2 1 5 2 3 2 4 2 1 1 2 3 3 3 2 4 10 9 4 3 5 7 7 7 10 8 8 8 12 12 11 9 8 11 11 11 9 10 7 9 8 11 7 9 13 7 7 14 14 15 15 15 14 13 14 15 14 14
17 17 16 16 15 14 12 4 3 4 5 3 1 0 1 1 3 4 3 2 5 1 2 2 5 3 3 3 2 2 2 3 2 0 2 3 4 1 3 2 1 1 6 4 4 4 6 4 5 9 7 7 7 8 7 8 8 8 3 8 12 12 10 10 10 8 7 7 3 5 3 14 6 3 5 3 3 9 7 9 13 13 12 11 10 11 12 12
16 17 16 16 14 12 6 5 2 4 4 2 1 1 1 2 2 5 3 1 3 2 1 2 2 1 2 1 1 1 3 2 1 2 1 4 1 1 3 2 3 1 1 2 1 3 5 1 3 4 8 9 8 10 10 10 7 7 3 5 2 6 7 6 8 9 9 9 12 7 8 12 16 5 6 5 8 4 7 11 10 9 11 12 11 6 6 8
16 16 15 14 12 6 4 2 4 6 3 2 1 1 2 3 3 3 2 3 2 1 0 2 0 1 2 1 0 4 3 1 2 3 1 3 2 1 2 3 3 2 3 2 7 2 3 3 5 5 8 8 11 10 5 11 8 1 6 4 2 1 4 4 5 7 7 8 11 10 8 10 10 1 5 4 1 3 6 6 8 10 12 1 7 7 8 8
16 16 15 14 7 5 1 1 3 3 2 2 1 3 3 4 3 2 0 1 2 2 1 3 1 1 2 2 2 1 2 1 3 4 2 0 5 2 1 0 0 0 2 4 8 1 1 2 0 5 6 9 5 3 5 9 8 6 3 0 1 2 2 5 6 7 8 7 13 12 9 9 15 10 3 4 7 7 9 8 10 11 5 8 7 7 7 7
16 15 15 13 7 1 1 0 4 2 3 4 3 5 4 3 2 2 1 5 2 1 3 1 3 1 2 3 2 3 4 2 1 3 2 1 3 2 3 3 2 1 3 2 8 8 2 0 2 2 9 8 1 3 5 8 9 6 3 5 6 6 6 5 6 6 6 12 15 15 8 8 11 9 5 5 4 4 2 6 4 2 9 7 7 7 6 6
15 15 14 12 6 2 2 6 4 1 3 4 4 3 2 1 1 1 3 4 4 2 2 2 2 3 1 3 3 2 0 2 1 1 2 2 1 3 3 1 2 1 2 4 7 9 6 7 3 5 8 6 5 6 4 4 4 4 5 5 5 7 8 6 6 5 7 10 14 5 10 12 11 12 3 9 9 7 9 9 11 2 7 7 6 5 6 6
15 15 13 8 4 3 4 7 1 3 2 4 3 4 3 2 2 5 5 3 2 1 0 0 2 0 2 3 2 1 1 2 1 2 4 2 3 4 6 7 2 3 5 3 3 4 3 7 5 2 3 10 8 6 7 5 6 8 7 5 4 4 0 3 5 7 9 10 4 8 13 10 16 19 15 5 5 9 15 11 4 9 8 7 6 6 5 5
16 14 12 6 2 5 6 4 4 3 1 1 1 1 1 1 4 2 3 1 1 2 1 3 1 1 1 2 4 1 2 3 3 1 2 0 2 6 3 5 2 4 9 2 3 3 4 5 3 6 2 9 10 8 5 6 10 10 10 9 6 4 4 5 6 4 6 10 10 10 10 8 9 16 15 7 4 4 5 9 9 9 9 7 6 5 5 5
15 12 7 5 5 7 3 4 4 5 3 1 3 0 2 1 7 3 3 5 1 3 3 2 1 3 1 5 1 3 3 4 3 3 5 1 2 5 4 7 7 3 3 3 3 2 4 5 5 9 3 8 14 12 5 3 9 13 9 11 8 5 4 5 4 5 6 4 4 8 8 4 7 2 8 6 5 7 9 10 10 10 9 7 5 6 6 8
14 9 5 2 2 7 9 6 6 7 3 3 4 5 3 8 1 3 4 3 2 1 2 2 1 1 4 3 2 4 3 1 2 2 4 4 6 3 4 5 8 6 1 3 4 1 9 8 1 4 3 4 12 11 3 6 3 6 7 7 8 11 6 8 4 3 4 6 8 6 7 7 10 8 8 7 7 9 8 10 10 9 7 6 7 8 8 8
8 3 1 4 3 6 4 6 9 8 7 5 5 6 11 6 3 4 1 2 2 2 2 3 4 3 5 2 0 1 2 6 2 2 2 7 3 3 2 3 7 14 9 9 2 4 1 5 2 1 3 4 8 4 8 8 5 6 10 10 10 2 4 6 9 10 10 10 14 7 10 11 11 5 11 9 11 8 8 8 9 9 8 9 9 7 8 7
7 8 6 3 6 2 5 8 9 9 7 9 7 12 8 6 13 4 3 4 1 3 1 4 3 6 1 2 1 3 3 4 3 2 4 4 5 11 5 5 4 10 13 7 4 4 6 3 4 4 5 7 1 2 6 5 3 3 7 6 6 3 1 5 7 4 7 10 10 8 13 13 9 10 10 11 11 7 7 7 7 8 8 10 8 8 7 8
8 7 9 10 10 5 6 9 11 8 6 8 14 17 4 7 5 13 4 4 1 3 3 5 4 6 4 2 2 5 4 4 4 4 3 6 4 7 3 2 7 10 12 1 3 0 2 8 5 7 2 3 3 3 5 9 4 6 3 4 4 6 8 9 4 9 7 11 7 9 13 12 11 11 6 7 11 8 7 6 6 7 9 8 8 8 8 8
6 6 7 3 2 7 7 10 9 8 8 11 13 13 9 14 6 8 6 5 1 4 7 10 6 4 3 3 2 1 4 5 5 6 1 4 6 6 5 4 2 4 2 6 5 2 1 5 2 1 6 2 1 4 9 8 3 1 5 4 2 4 6 8 8 7 6 13 6 8 12 11 10 13 5 9 11 8 8 6 6 7 7 7 7 8 9 9
7 6 6 1 1 4 8 11 7 9 10 16 11 13 1 4 6 6 7 11 8 7 9 5 11 9 6 5 5 6 4 4 5 4 6 2 6 5 5 4 2 4 4 5 4 1 4 3 9 2 2 3 5 9 10 8 10 9 8 7 4 5 2 3 5 7 9 9 10 10 12 6 7 2 3 10 10 9 7 6 6 5 5 6 7 7 9 9
4 6 4 3 4 7 10 8 8 12 12 10 9 11 11 10 5 9 13 16 12 11 10 8 7 11 6 5 7 5 4 6 4 5 5 5 7 9 6 7 6 5 5 2 5 4 3 4 8 3 4 9 8 4 5 8 9 10 10 11 11 9 9 11 14 6 7 10 10 8 15 7 2 2 5 8 8 8 6 6 5 4 4 4 4 6 7 9
4 7 4 3 9 9 7 8 8 6 8 15 13 8 9 12 17 18 11 11 15 12 12 12 19 12 14 16 15 7 6 8 8 8 9 10 8 11 1 5 7 8 7 6 8 11 6 2 5 11 10 11 6 4 4 4 4 2 6 9 9 8 8 11 16 11 5 10 8 10 11 14 1 6 3 7 8 7 6 4 4 3 1 2 2 4 7 7
6 11 3 9 12 11 7 14 15 14 16 13 6 12 16 18 15 10 10 8 7 7 6 11 10 13 15 12 11 14 12 9 11 14 11 9 16 17 10 10 8 7 10 6 4 7 7 3 7 10 7 1 5 4 1 3 3 4 5 2 4 9 9 11 13 8 10 7 11 13 16 11 2 3 2 6 6 5 3 2 1 1 2 2 3 6 8 9
9 12 10 7 14 12 11 14 12 15 14 13 15 18 15 18 13 15 17 18 9 6 10 9 10 16 10 11 9 13 14 10 13 18 15 18 17 18 18 14 13 8 9 7 9 8 3 6 9 12 8 4 5 3 5 2 2 4 6 6 7 6 9 4 1 2 10 11 15 12 20 10 3 5 3 7 6 6 7 7 6 5 3 2 5 6 8 10
10 8 11 8 11 11 16 8 11 15 14 16 12 15 17 15 13 19 19 18 15 11 6 11 13 10 14 13 15 15 16 22 11 13 18 14 16 14 16 20 18 15 13 9 13 7 9 7 10 12 13 12 11 12 13 13 12 9 4 7 8 10 10 6 9 8 14 9 14 14 16 12 11 6 6 7 7 8 10 10 9 8 4 3 6 7 7 8
5 9 1 1 6 7 13 11 14 14 16 16 15 15 15 20 13 13 17 19 19 17 17 14 12 18 19 17 16 15 19 19 17 7 12 11 13 8 2 10 19 18 22 22 19 8 4 8 10 11 14 17 13 9 9 9 5 7 11 17 15 13 14 11 9 13 16 11 16 14 13 12 18 20 18 14 13 16 17 17 15 9 4 4 6 8 8 9
1 10 3 6 2 12 13 12 14 13 13 10 12 3 14 16 11 11 14 11 13 16 14 17 13 11 11 16 17 17 17 16 20 20 15 15 12 4 5 6 6 7 9 9 9 6 1 8 12 15 19 17 15 15 15 14 11 13 15 16 21 20 17 15 14 18 14 11 17 8 8 12 21 21 17 17 16 16 16 15 14 10 4 5 7 8 10 10
7 4 7 4 6 7 8 9 11 16 18 16 15 11 16 15 13 10 2 6 3 4 3 1 6 10 11 11 9 8 4 8 8 8 6 10 8 2 4 1 2 3 2 3 4 0 3 4 5 12 15 14 15 17 17 15 13 14 16 17 19 21 21 19 18 19 16 14 15 6 16 20 18 18 18 19 17 19 18 16 7 4 5 7 8 9 10 11
8 3 9 4 8 10 15 15 15 17 21 18 14 16 21 21 22 16 9 6 6 7 6 12 13 10 8 7 8 6 7 6 3 3 1 2 2 0 2 3 4 6 6 3 4 5 2 5 5 6 11 12 14 15 16 20 17 12 16 19 19 18 21 20 18 18 19 14 13 15 17 20 15 19 21 18 16 17 13 3 5 8 8 7 8 9 10 10
6 7 4 3 12 15 15 14 14 16 16 14 15 16 13 15 18 16 12 13 12 15 9 19 23 17 16 15 13 13 13 13 12 16 9 9 9 6 8 7 5 5 4 5 5 4 5 6 9 11 12 12 12 14 16 20 19 19 18 19 20 20 15 18 17 17 16 16 16 18 21 21 18 20 20 18 11 4 3 9 12 14 9 7 8 9 10 9
8 7 9 9 12 11 15 14 12 14 13 13 14 13 11 15 17 12 14 12 17 17 13 18 18 17 14 16 18 20 16 16 16 19 16 14 13 5 4 2 9 7 8 4 3 4 6 7 5 7 10 12 10 12 17 18 19 21 20 21 21 19 19 11 13 13 15 16 19 21 19 16 14 18 21 17 4 6 15 17 16 12 8 6 7 9 10 9
6 6 8 7 13 7 14 10 13 13 15 8 10 16 13 19 17 11 15 11 17 19 17 17 18 14 10 16 20 19 17 17 17 12 7 6 7 9 7 5 6 6 6 8 5 4 4 5 7 8 12 12 9 13 15 18 18 20 19 17 20 21 20 19 17 19 21 18 17 16 16 15 18 19 20 10 9 16 20 16 14 9 7 8 9 10 10 9
Wind_Direction
15 14 12 11 9 9 7 4 1 360 357 356 354 349 348 347 346 345 343 341 337 337 336 335 332 331 335 337 339 8 345 338 326 352 68 21 333 339 13 10 5 347 340 312 263 227 176 115 188 8 186 197 172 199 153 187 171 158 195 221 235 232 230 213 215 212 45 99 132 161 205 221 244 159 192 163 217 224 164 227 211 256 249 256 68 89 61 93
11 11 10 7 7 5 5 2 1 358 357 355 353 349 348 346 344 341 338 337 337 334 334 336 331 327 338 336 345 2 339 327 318 74 49 342 345 27 21 14 6 356 332 22 23 242 175 162 127 42 172 197 357 189 154 191 185 194 202 215 238 215 235 211 223 226 229 223 154 206 209 227 245 241 161 226 214 202 225 228 216 246 253 236 217 168 140 146
9 8 6 4 2 2 2 360 358 356 355 353 352 349 349 346 341 337 336 334 334 333 332 333 332 324 335 337 341 348 332 323 220 67 353 346 19 13 15 10 6 5 11 356 20 358 336 90 107 157 186 230 180 192 215 176 182 218 208 220 232 226 211 199 230 223 219 268 229 171 219 216 237 285 91 239 257 218 225 222 182 230 249 234 199 114 126 163
5 3 3 1 360 358 359 357 354 353 354 352 350 348 349 346 339 335 334 333 332 331 331 330 329 327 334 334 346 324 319 262 132 357 348 338 358 359 4 2 2 348 279 62 70 42 50 74 8 193 154 225 140 279 191 180 191 177 220 227 227 180 208 212 214 229 216 240 273 254 77 233 240 276 246 264 262 253 244 230 254 252 239 239 100 129 148 169
2 360 0 1 359 357 357 356 353 350 348 351 350 348 350 341 338 334 332 331 330 328 329 330 326 323 338 342 352 322 285 249 119 19 338 343 353 357 357 360 359 357 35 128 175 89 73 51 155 41 201 198 141 185 245 201 276 194 224 235 209 129 223 139 206 50 304 154 237 245 237 234 20 247 230 238 248 253 259 222 221 241 267 7 54 143 181 183
3 3 3 2 359 359 356 354 353 350 346 347 348 349 343 340 337 334 332 329 328 327 327 331 326 321 340 355 359 270 217 261 82 21 332 347 350 352 345 353 355 342 221 78 82 29 182 142 177 170 187 209 191 204 99 236 4 235 221 285 336 178 229 102 149 60 314 229 228 232 242 34 232 246 223 243 243 251 70 33 20 353 1 28 75 138 197 204
1 1 360 358 356 356 355 353 352 351 347 343 345 345 341 339 337 334 331 329 325 326 328 329 327 325 5 327 49 333 230 59 235 22 347 343 348 339 333 347 353 9 47 85 66 174 33 150 203 177 177 207 236 231 359 284 351 262 257 59 196 4 234 32 2 38 343 313 260 12 90 232 203 250 180 239 245 258 278 95 50 54 51 97 199 204 233 221
359 358 358 356 355 354 354 351 349 349 346 344 344 342 339 338 336 333 332 329 323 322 323 325 322 4 356 334 287 164 103 107 138 93 342 339 339 334 323 309 7 349 40 36 11 121 198 164 192 126 217 214 103 203 89 246 226 241 247 353 336 314 318 340 333 320 316 304 311 284 271 235 196 244 27 243 244 257 267 145 217 290 251 175 226 221 230 240
357 356 357 355 355 354 352 350 348 347 345 342 343 338 337 337 334 331 331 328 319 315 315 313 324 14 75 260 2 208 105 54 329 331 339 340 332 326 319 346 358 41 91 43 358 53 241 178 152 202 225 205 163 219 176 189 232 194 277 4 338 308 327 329 314 302 310 301 302 294 269 254 199 283 257 240 241 249 276 256 200 241 268 251 224 225 222 232
355 355 354 354 353 352 351 350 348 346 345 343 341 336 335 336 334 331 332 325 320 315 300 299 306 4 337 314 232 233 80 14 273 327 344 327 320 296 90 36 360 75 182 60 161 217 253 151 256 162 315 117 148 209 79 229 285 109 17 320 301 296 316 319 309 305 335 295 292 286 284 280 168 146 261 134 221 224 238 260 248 234 242 253 259 224 216 236
354 355 354 351 352 351 350 349 348 346 344 344 337 334 334 335 335 333 330 327 324 313 288 272 274 326 173 292 242 107 111 307 328 346 340 330 329 13 1 358 346 80 71 121 6 336 330 148 107 121 232 240 154 183 209 52 51 68 331 289 243 239 249 267 277 274 310 287 28 286 285 290 268 212 241 207 90 122 228 265 259 252 252 252 252 253 235 212
352 352 352 350 349 349 349 348 347 346 344 343 336 332 331 335 335 335 332 335 331 319 296 253 233 169 172 341 57 73 157 290 330 353 348 354 2 337 325 323 297 4 342 93 66 340 236 333 175 244 352 125 222 142 171 106 321 105 314 272 260 207 251 197 239 241 199 255 210 332 303 273 252 238 232 199 244 160 195 247 259 241 239 243 245 249 245 235
351 350 349 348 347 346 347 347 346 345 345 341 334 330 329 334 334 331 337 345 341 345 47 167 137 172 192 175 83 68 215 311 320 324 358 355 341 115 10 21 6 306 309 287 72 58 109 164 226 220 27 279 345 220 60 329 306 201 195 255 272 258 255 191 207 228 209 221 152 161 264 251 251 256 185 194 184 199 216 237 240 252 253 253 246 237 241 234
351 348 348 346 345 345 345 346 345 345 345 340 333 327 328 335 328 328 344 350 8 50 98 120 132 138 219 11 140 218 292 302 200 347 359 333 326 167 157 61 63 56 353 282 47 18 123 31 266 94 89 253 167 49 267 251 257 276 274 179 255 268 247 129 164 186 214 186 180 201 251 259 265 56 77 145 178 200 220 230 233 238 240 244 248 248 246 242
350 349 349 347 346 343 344 345 345 345 344 341 332 324 330 333 327 321 3 8 16 65 102 90 52 172 190 80 238 308 275 190 5 1 360 354 346 11 15 28 43 31 58 53 61 107 181 160 198 189 145 19 285 286 266 229 201 257 254 244 208 229 194 136 165 172 184 172 212 198 246 258 262 292 47 14 256 218 225 232 236 237 241 243 250 255 259 266
349 350 351 347 345 344 344 344 345 346 344 340 332 323 334 331 330 316 12 1 341 324 94 180 24 332 254 191 71 342 96 345 347 342 342 328 303 352 332 319 40 74 185 64 23 124 58 223 35 37 113 163 205 216 256 267 212 200 227 264 179 202 245 308 164 203 260 87 244 210 240 81 130 72 63 33 70 323 263 260 256 261 276 302 309 313 317 309
347 350 350 349 344 344 344 344 345 348 346 340 328 328 330 339 343 327 43 1 1 327 277 121 154 242 289 74 341 109 353 329 349 320 334 345 289 316 320 231 121 87 79 98 66 192 15 219 196 174 46 255 173 196 249 247 248 208 189 247 244 238 248 252 113 60 147 248 216 230 257 254 51 354 344 95 50 347 304 288 284 288 290 287 283 282 281 279
347 350 349 348 346 345 344 345 348 350 349 341 325 332 321 357 3 107 38 19 326 18 79 50 204 237 176 42 187 353 10 289 327 318 289 290 307 265 301 278 145 105 143 128 110 195 282 154 271 225 137 184 176 200 220 244 255 240 202 231 234 208 238 256 240 138 74 182 248 254 247 253 262 292 302 303 280 248 279 283 282 288 290 291 290 288 285 280
347 348 348 348 346 345 344 345 350 354 352 340 322 330 321 96 65 80 42 0 245 228 218 127 2 272 321 73 326 279 277 315 295 262 143 23 167 283 104 60 4 196 176 212 106 171 168 147 179 196 218 187 206 211 229 263 20 298 286 278 282 276 226 221 232 287 357 272 256 244 253 260 256 259 263 276 286 283 273 271 272 269 273 280 282 284 284 284
344 345 346 345 346 344 344 346 353 0 358 344 345 346 330 19 21 245 28 9 22 303 328 334 158 288 305 261 300 320 266 305 283 172 301 229 258 178 150 305 105 190 210 205 137 103 292 209 209 220 224 209 213 225 247 278 24 302 286 270 268 265 264 252 127 212 111 307 263 262 265 267 269 264 258 263 283 282 275 270 269 269 268 265 268 271 274 275
341 343 343 344 346 344 345 345 359 5 6 357 351 28 41 347 353 336 334 292 270 173 261 283 267 252 259 356 308 352 12 124 154 317 354 349 270 257 188 209 185 197 88 3 151 85 250 225 236 230 232 219 218 228 240 254 267 261 267 267 268 257 266 269 263 215 239 247 268 263 268 266 265 263 258 256 254 267 272 272 270 271 269 268 265 268 268 272
341 340 340 340 344 345 345 342 7 8 360 2 36 55 100 49 263 306 334 310 269 186 223 255 352 268 259 256 266 346 217 294 203 235 104 253 6 239 117 211 206 211 121 180 200 202 223 242 258 192 212 206 213 216 224 238 246 238 250 260 265 264 264 265 259 252 231 229 264 265 267 270 267 264 261 252 252 255 263 263 264 266 268 267 265 264 267 266
338 339 336 337 341 347 340 344 14 25 7 20 37 67 68 2 83 171 294 261 274 201 227 225 226 246 280 171 147 180 240 218 197 155 17 335 169 299 142 191 181 145 145 216 234 227 261 243 346 192 184 204 212 206 205 228 238 245 237 239 246 268 279 271 173 191 222 231 289 294 294 282 274 258 251 246 242 249 249 253 251 248 257 259 261 263 268 271
337 336 334 334 342 339 337 346 5 360 33 38 62 43 250 105 123 159 201 270 309 349 206 211 230 245 231 344 161 174 266 111 205 172 39 282 163 176 196 178 145 189 217 184 225 236 252 57 98 148 194 197 214 197 204 221 238 224 232 243 259 256 255 253 287 299 268 264 263 285 279 275 254 239 239 242 237 237 241 243 252 253 253 259 260 260 256 258
336 336 334 334 339 340 333 337 14 9 18 210 93 149 173 187 231 197 272 283 232 257 107 213 182 233 160 81 131 229 199 297 240 354 334 319 149 187 107 62 242 219 160 163 161 248 257 257 119 193 176 200 205 216 210 217 244 242 233 237 249 258 266 265 272 280 285 285 267 249 287 268 260 209 235 248 220 230 235 240 250 257 254 251 251 250 254 252
336 333 335 335 339 341 321 287 27 345 324 349 14 147 215 161 211 210 261 348 294 71 211 71 190 80 137 116 131 253 108 244 40 354 349 329 323 292 147 188 259 257 145 171 238 264 281 64 201 215 198 202 214 239 217 200 246 262 265 203 234 240 247 258 261 262 269 265 56 47 286 285 293 234 232 207 173 226 230 212 237 250 255 252 249 249 249 257
337 333 333 334 338 344 337 354 350 287 330 72 150 223 245 184 175 192 278 239 279 109 118 68 255 98 223 3 346 184 234 118 95 81 210 352 206 297 241 181 125 116 125 216 243 234 170 210 166 219 223 227 238 242 220 196 243 260 65 130 177 219 230 227 241 240 259 291 290 276 263 281 287 275 223 230 230 218 248 253 247 249 257 249 251 279 315 322
332 331 333 333 354 358 328 305 324 332 297 359 108 39 162 150 159 241 243 352 270 74 336 189 132 90 235 47 202 249 22 321 230 155 50 322 267 160 220 231 217 182 174 202 265 61 137 158 188 184 206 220 230 229 124 185 205 241 80 46 107 290 269 247 250 260 271 290 276 257 231 257 261 333 109 198 158 137 230 238 253 245 241 277 50 36 33 31
329 328 330 341 14 73 84 327 300 296 68 128 113 110 105 143 221 302 278 268 209 80 82 89 10 190 81 223 127 53 290 25 280 48 296 274 30 292 209 280 206 12 332 234 256 223 12 20 27 240 224 236 216 143 186 184 214 233 126 199 69 59 286 272 265 275 278 277 264 245 211 253 274 258 225 228 240 250 254 248 247 260 48 62 56 52 40 41
324 328 328 339 345 201 44 172 242 265 109 112 120 120 123 202 243 206 308 252 33 202 86 63 196 262 43 218 215 74 226 179 104 321 35 194 50 88 64 69 164 127 235 247 254 262 338 160 352 243 226 237 259 214 198 201 219 67 53 278 287 291 282 263 261 264 288 255 252 243 192 215 284 275 227 232 182 224 184 231 212 159 97 80 70 56 42 33
323 321 323 332 317 342 303 291 285 176 122 106 123 150 227 279 258 93 219 228 51 202 45 181 197 21 234 194 244 115 141 292 333 95 196 156 214 117 173 200 124 219 238 234 253 255 261 261 265 241 225 235 235 245 211 232 243 265 254 263 272 287 247 251 247 229 238 260 258 234 179 190 236 282 250 220 232 243 256 253 252 176 91 91 73 58 45 32
327 324 325 322 298 155 272 291 75 138 143 142 193 287 287 287 124 207 226 353 278 107 168 286 41 340 83 33 331 243 228 35 236 168 213 187 225 189 194 226 160 298 259 221 260 85 251 206 209 297 212 197 197 215 220 171 192 211 221 219 224 264 111 281 185 215 204 237 70 139 159 198 228 251 251 100 277 270 272 272 211 136 124 98 84 68 44 41
327 325 318 305 213 243 235 249 122 140 145 256 328 270 276 116 275 204 258 2 242 76 161 52 62 79 108 52 252 116 40 229 110 248 102 251 227 243 228 240 107 211 269 82 300 328 270 97 140 212 130 209 189 190 184 199 211 204 202 194 183 229 204 243 230 224 251 242 224 125 189 224 246 256 276 280 355 5 71 90 99 107 109 104 87 70 55 42
324 322 309 285 257 239 219 146 170 149 221 270 234 229 97 210 241 107 240 242 231 10 27 76 119 59 280 221 251 165 228 205 138 205 185 205 164 258 212 202 138 216 215 294 274 262 286 269 210 157 212 170 202 213 218 216 184 204 199 197 202 202 177 224 206 223 220 282 98 181 203 237 232 186 75 67 59 78 82 96 101 101 102 99 89 73 57 41
324 304 286 256 274 251 234 172 158 165 129 167 174 188 184 242 251 238 227 257 246 259 163 31 170 90 247 239 266 274 252 312 139 112 202 197 231 212 210 194 195 191 85 237 216 101 221 255 71 187 22 165 197 215 221 126 158 190 191 202 230 232 242 256 284 299 317 298 271 190 206 222 240 84 107 101 91 78 87 98 100 99 98 100 74 53 41 35
317 293 228 268 215 246 174 157 166 158 172 181 188 212 221 190 239 153 245 107 86 217 156 173 122 249 241 233 145 303 120 222 93 190 235 211 257 228 182 202 179 182 179 199 158 206 133 246 78 237 161 219 201 181 201 213 221 181 163 199 214 9 222 259 277 272 278 277 260 239 261 245 269 211 141 128 104 87 84 85 92 86 82 71 60 48 38 32
319 318 300 256 236 145 139 156 171 176 181 191 211 247 223 251 232 194 229 197 305 109 154 287 239 186 218 234 153 156 184 137 240 181 246 123 270 207 221 244 163 196 206 201 238 209 261 264 77 172 209 215 331 319 235 262 297 139 188 204 99 9 316 226 260 267 228 240 256 201 218 247 228 273 134 127 107 104 86 88 79 81 70 65 53 42 29 20
319 300 284 268 250 144 152 159 165 176 173 202 225 234 145 234 183 212 122 136 196 179 236 198 262 140 262 187 221 152 189 205 146 152 258 167 275 115 154 213 184 195 208 283 242 126 134 275 209 201 192 98 95 206 251 232 240 237 191 346 209 213 207 219 236 237 236 247 261 236 241 246 233 231 131 168 132 127 112 104 90 71 63 55 47 36 26 16
309 301 310 277 60 146 150 161 175 161 191 221 234 250 230 235 212 198 178 198 161 202 239 232 229 212 199 205 148 1 168 202 142 200 208 190 221 164 185 157 225 193 224 182 220 180 164 246 287 31 181 112 164 209 226 194 142 218 326 279 241 306 253 226 202 239 268 262 245 245 197 231 222 245 158 153 138 143 132 112 88 72 62 48 37 26 15 10
331 319 273 92 112 150 158 162 180 183 200 227 228 229 149 286 231 204 184 202 233 183 235 235 209 245 194 227 159 233 197 231 169 218 194 197 211 120 191 160 207 139 156 209 203 52 222 150 263 119 331 304 219 198 224 192 186 202 213 230 209 211 313 11 292 238 220 244 246 267 259 229 233 55 140 148 151 148 137 121 94 78 60 49 35 21 9 3
310 277 263 132 140 155 157 179 195 211 221 241 234 243 243 252 243 198 198 205 232 221 231 225 220 217 219 221 240 173 242 185 203 213 202 249 202 257 190 182 163 128 139 120 207 202 185 196 223 203 168 209 219 53 230 231 215 212 200 216 208 205 215 230 247 205 240 237 238 238 249 253 114 123 116 152 160 149 129 107 97 83 63 42 32 11 2 352
298 272 269 134 143 154 167 225 225 206 228 237 234 213 246 245 250 252 225 218 214 234 215 234 238 233 240 243 253 207 205 226 212 230 219 230 208 219 207 158 177 151 151 198 202 199 193 212 205 233 213 222 209 84 36 10 350 280 237 227 205 219 213 226 243 231 206 242 284 267 286 254 204 136 178 164 161 154 141 101 70 45 73 47 3 354 347 342
257 256 162 158 166 159 201 254 250 245 244 248 293 254 249 256 255 255 255 200 220 220 243 235 225 229 235 237 234 242 222 232 213 228 229 211 234 219 209 175 161 178 202 226 169 193 120 198 224 244 252 309 303 239 152 13 334 261 234 226 167 209 210 231 244 265 267 250 240 250 242 257 141 174 170 145 141 159 175 231 198 251 304 334 342 335 339 336
277 278 275 188 182 184 225 240 242 240 249 255 243 253 248 255 255 256 246 244 213 198 213 224 239 215 235 217 211 234 227 260 208 221 245 240 248 228 213 205 163 199 188 210 224 154 140 212 218 247 246 236 228 242 246 137 164 232 231 192 206 204 202 224 24 40 251 224 243 250 255 249 197 132 149 154 176 196 234 252 266 270 247 303 323 330 332 328
288 268 245 222 192 197 223 215 240 253 254 254 254 252 255 248 241 244 252 252 243 232 237 230 211 215 228 212 225 224 222 231 260 219 222 232 248 232 214 218 208 215 208 206 210 178 206 202 182 219 228 232 219 207 219 220 213 216 217 227 203 199 188 157 219 207 236 221 222 231 252 253 260 237 208 175 217 234 244 255 258 249 221 304 321 326 327 322
248 285 231 182 199 234 238 228 237 243 252 254 257 250 248 259 251 229 223 239 232 235 233 246 218 209 228 234 229 226 232 228 230 235 232 235 238 247 301 230 222 219 224 221 223 195 235 229 212 197 219 235 235 227 207 214 185 184 202 210 209 204 204 202 216 227 231 229 234 229 244 272 260 255 256 260 266 271 280 284 283 268 258 308 314 317 318 311
241 257 307 271 301 217 230 226 242 242 248 258 257 241 256 254 264 258 214 254 226 232 239 234 239 229 224 226 233 238 229 233 227 233 232 238 238 218 76 70 28 341 303 281 272 259 262 242 232 234 229 237 241 242 239 218 207 209 209 209 212 208 202 206 210 229 226 241 250 212 201 232 251 260 262 260 256 260 262 262 265 259 270 299 305 311 306 301
254 229 232 248 248 247 257 244 231 247 251 251 258 264 260 264 263 268 40 243 326 321 319 312 243 248 268 264 286 271 244 244 245 253 251 255 264 64 23 138 112 186 116 235 71 269 266 256 255 250 260 261 261 267 264 259 226 228 220 213 215 214 210 209 219 228 225 223 242 199 200 231 248 254 253 249 243 252 252 263 268 256 280 283 293 298 293 291
258 271 249 135 250 251 256 267 262 259 261 251 261 251 261 260 261 261 268 280 254 255 235 273 259 254 267 280 267 271 282 304 277 64 251 45 140 129 290 223 187 157 157 169 155 196 198 250 260 254 274 280 279 279 277 270 263 238 239 240 233 215 214 211 215 218 219 226 233 244 246 244 246 254 252 247 244 244 255 251 265 260 255 271 284 278 272 281
238 269 266 237 256 261 260 259 258 263 261 252 261 249 258 257 261 261 249 253 262 261 259 265 271 269 264 261 254 258 263 266 270 271 253 233 247 189 263 246 255 168 181 169 178 213 195 245 280 285 282 272 267 266 261 260 262 258 247 244 245 249 227 214 222 227 227 235 237 240 241 245 242 250 263 267 247 204 260 261 251 260 260 264 266 261 261 270
277 265 287 283 264 262 266 257 257 258 263 257 255 264 261 258 262 258 257 241 249 261 250 255 264 265 249 247 253 260 265 266 262 252 250 247 253 234 178 252 180 206 167 190 189 230 215 264 264 263 269 269 254 260 266 271 269 263 257 243 240 240 245 211 222 219 221 221 225 236 245 248 252 258 257 258 200 245 259 255 257 256 251 241 239 248 256 268
275 264 251 240 253 228 264 260 258 264 252 237 242 257 257 264 267 270 276 238 243 247 247 248 256 265 261 252 249 251 254 257 261 275 287 262 242 248 229 223 165 205 244 239 217 209 224 252 261 266 268 259 264 259 264 270 272 261 248 248 240 239 238 238 226 219 226 230 237 237 244 245 247 245 256 244 217 246 247 249 253 242 222 221 232 240 250 259